Temp
-12 -12 -11 -11 -11 -10 -10 -11 -11 -11 -10 -11 -10 -10 -10 -9 -8 -8 -9 -10 -10 -10 -10 -9 -9 -9 -10 -10 -10 -10 -10 -10 -10 -10 -10 -10 -10 -10 -10 -9 -10 -10 -10 -9 -9 -9 -9 -9 -9
-12 -12 -12 -11 -11 -9 -10 -12 -11 -12 -10 -10 -10 -10 -10 -9 -8 -9 -9 -10 -10 -10 -10 -10 -9 -10 -10 -10 -10 -10 -10 -10 -10 -10 -10 -10 -10 -10 -10 -10 -10 -10 -9 -10 -10 -9 -10 -9 -9
-13 -12 -12 -12 -10 -9 -10 -12 -12 -11 -10 -10 -11 -12 -10 -9 -9 -9 -10 -10 -10 -10 -10 -10 -10 -10 -10 -10 -10 -10 -10 -10 -10 -10 -10 -10 -10 -10 -10 -10 -10 -10 -10 -10 -10 -10 -10 -10 -10
-14 -13 -13 -11 -10 -10 -11 -13 -12 -13 -11 -11 -11 -11 -11 -10 -10 -10 -10 -10 -10 -10 -10 -10 -10 -10 -10 -10 -10 -10 -10 -10 -11 -10 -10 -10 -10 -10 -10 -10 -10 -10 -10 -10 -10 -10 -10 -10 -10
-14 -13 -12 -11 -10 -10 -12 -13 -12 -12 -12 -12 -11 -11 -11 -10 -10 -10 -10 -11 -10 -10 -10 -10 -10 -10 -10 -10 -10 -10 -10 -10 -10 -10 -10 -10 -10 -10 -10 -10 -10 -10 -10 -10 -10 -10 -10 -10 -10
-15 -14 -12 -10 -10 -11 -13 -13 -13 -12 -13 -11 -12 -11 -11 -11 -10 -11 -11 -10 -11 -10 -10 -10 -10 -10 -10 -10 -10 -10 -10 -10 -10 -10 -10 -10 -10 -10 -10 -10 -10 -10 -10 -10 -10 -10 -10 -10 -11
-14 -14 -11 -11 -11 -11 -13 -13 -13 -13 -12 -12 -12 -12 -11 -11 -11 -11 -11 -11 -11 -11 -10 -10 -10 -10 -10 -10 -10 -10 -10 -10 -10 -11 -11 -10 -10 -10 -10 -9 -9 -10 -10 -10 -10 -10 -10 -10 -10
-15 -15 -12 -12 -12 -11 -15 -14 -13 -13 -12 -12 -12 -13 -11 -11 -11 -11 -11 -11 -11 -11 -11 -10 -10 -10 -10 -10 -10 -10 -10 -10 -10 -10 -10 -10 -10 -10 -10 -9 -9 -10 -10 -10 -10 -10 -10 -11 -11
-16 -15 -13 -12 -12 -12 -15 -14 -14 -13 -13 -11 -12 -13 -12 -11 -11 -12 -12 -12 -11 -11 -11 -11 -10 -10 -10 -10 -10 -10 -10 -10 -11 -10 -10 -10 -10 -10 -9 -10 -10 -10 -10 -11 -11 -11 -11 -11 -11
-17 -15 -14 -13 -13 -14 -15 -15 -13 -14 -12 -12 -13 -13 -12 -12 -12 -12 -12 -12 -11 -11 -11 -11 -10 -10 -10 -11 -11 -10 -10 -10 -11 -11 -10 -10 -10 -10 -10 -10 -10 -10 -10 -11 -11 -11 -11 -12 -12
-17 -15 -14 -14 -14 -15 -16 -16 -14 -14 -13 -13 -14 -13 -12 -12 -12 -12 -12 -12 -12 -11 -11 -11 -11 -11 -11 -11 -11 -11 -10 -10 -11 -11 -11 -11 -10 -10 -10 -10 -10 -11 -11 -11 -11 -12 -12 -12 -13
-18 -16 -15 -16 -16 -16 -16 -16 -14 -14 -14 -14 -14 -13 -12 -12 -13 -13 -12 -12 -12 -12 -12 -11 -11 -11 -11 -11 -11 -11 -11 -10 -11 -11 -11 -10 -10 -10 -10 -11 -11 -11 -11 -12 -12 -12 -12 -13 -13
-18 -16 -16 -17 -17 -17 -17 -16 -14 -14 -14 -15 -14 -14 -13 -12 -13 -13 -13 -12 -12 -12 -12 -11 -12 -12 -11 -11 -11 -11 -11 -10 -11 -11 -11 -11 -11 -11 -11 -12 -12 -12 -12 -12 -13 -13 -13 -13 -13
-17 -17 -17 -17 -17 -17 -16 -16 -16 -15 -15 -15 -14 -14 -14 -13 -13 -13 -13 -13 -13 -12 -12 -12 -12 -12 -12 -11 -11 -11 -11 -10 -10 -11 -11 -11 -11 -12 -12 -12 -13 -13 -13 -13 -13 -13 -13 -14 -14
-18 -17 -18 -17 -17 -17 -17 -16 -15 -14 -14 -14 -14 -14 -13 -13 -13 -13 -13 -13 -13 -12 -12 -12 -12 -12 -12 -11 -11 -11 -11 -11 -11 -11 -12 -12 -12 -13 -13 -12 -13 -13 -13 -13 -13 -14 -14 -14 -14
-17 -18 -18 -17 -16 -16 -17 -15 -15 -14 -14 -14 -14 -14 -13 -14 -14 -13 -13 -13 -13 -12 -12 -12 -12 -12 -12 -12 -12 -12 -12 -12 -11 -11 -12 -12 -12 -12 -13 -13 -13 -13 -13 -14 -14 -14 -14 -14 -14
-18 -18 -17 -17 -15 -16 -17 -15 -14 -14 -14 -14 -14 -14 -14 -14 -14 -14 -13 -13 -13 -12 -12 -12 -12 -12 -12 -12 -12 -12 -12 -12 -12 -11 -12 -13 -13 -13 -13 -13 -13 -13 -14 -14 -14 -14 -14 -14 -15
-17 -18 -17 -17 -16 -16 -16 -16 -15 -15 -14 -14 -14 -13 -14 -14 -14 -14 -13 -13 -13 -12 -12 -12 -12 -12 -12 -12 -13 -13 -13 -12 -12 -12 -12 -13 -13 -13 -13 -14 -14 -14 -14 -14 -15 -15 -15 -15 -15
-18 -17 -17 -16 -16 -16 -16 -16 -15 -15 -15 -14 -14 -14 -14 -14 -14 -14 -14 -13 -13 -13 -13 -12 -12 -12 -12 -13 -13 -13 -13 -13 -12 -12 -13 -13 -14 -14 -14 -14 -14 -14 -14 -15 -15 -15 -15 -15 -15
-19 -19 -17 -17 -17 -17 -16 -16 -16 -16 -16 -15 -15 -14 -14 -14 -14 -14 -14 -13 -13 -13 -13 -13 -13 -12 -13 -13 -13 -13 -13 -13 -13 -13 -13 -14 -14 -14 -14 -14 -14 -14 -15 -15 -15 -15 -15 -15 -15
-19 -18 -18 -17 -16 -17 -17 -17 -16 -16 -16 -15 -15 -15 -14 -14 -14 -14 -14 -14 -13 -13 -13 -13 -13 -13 -13 -13 -13 -13 -13 -13 -14 -14 -13 -14 -14 -15 -15 -14 -14 -14 -14 -14 -14 -14 -15 -15 -15
-18 -18 -17 -17 -17 -17 -17 -16 -16 -16 -16 -15 -14 -14 -15 -14 -14 -14 -14 -14 -13 -13 -13 -13 -13 -13 -13 -13 -13 -14 -14 -14 -14 -14 -14 -14 -14 -15 -15 -15 -14 -14 -14 -14 -14 -14 -15 -15 -15
-18 -17 -17 -17 -18 -17 -17 -18 -17 -16 -15 -15 -15 -15 -15 -15 -14 -14 -14 -14 -14 -13 -13 -13 -13 -13 -13 -14 -14 -14 -14 -14 -14 -14 -14 -14 -14 -15 -15 -15 -14 -14 -14 -14 -14 -14 -14 -15 -15
-18 -17 -18 -18 -17 -17 -17 -17 -17 -16 -16 -16 -15 -15 -15 -15 -15 -15 -14 -14 -14 -14 -13 -13 -13 -13 -13 -13 -13 -13 -14 -14 -14 -14 -14 -14 -14 -15 -15 -15 -14 -14 -14 -14 -14 -15 -14 -15 -15
-19 -18 -18 -18 -18 -17 -17 -18 -16 -16 -16 -16 -15 -15 -15 -15 -15 -15 -15 -14 -15 -15 -14 -14 -13 -13 -13 -13 -13 -13 -14 -14 -14 -14 -14 -14 -14 -15 -15 -14 -14 -14 -14 -14 -14 -15 -14 -14 -14
-17 -18 -17 -16 -17 -17 -18 -17 -17 -16 -16 -16 -16 -16 -15 -15 -15 -15 -14 -14 -14 -15 -15 -14 -14 -14 -14 -14 -14 -14 -14 -14 -14 -14 -14 -14 -14 -14 -14 -14 -14 -14 -14 -14 -14 -14 -14 -14 -14
-16 -16 -17 -17 -17 -17 -16 -16 -16 -17 -16 -16 -15 -15 -14 -15 -15 -15 -15 -14 -15 -15 -15 -15 -15 -14 -14 -14 -14 -14 -14 -14 -14 -14 -15 -14 -14 -14 -14 -14 -14 -14 -14 -14 -14 -14 -14 -14 -14
-16 -17 -17 -16 -16 -17 -16 -16 -15 -15 -16 -15 -15 -15 -15 -15 -15 -15 -15 -16 -15 -15 -15 -15 -15 -15 -15 -15 -14 -14 -14 -14 -14 -14 -14 -14 -14 -14 -14 -14 -14 -14 -14 -14 -14 -14 -14 -14 -14
-17 -15 -16 -17 -16 -16 -15 -14 -14 -14 -15 -15 -15 -15 -15 -15 -15 -15 -15 -16 -15 -15 -15 -15 -15 -16 -15 -15 -15 -15 -15 -15 -15 -15 -14 -14 -14 -15 -15 -14 -14 -14 -14 -14 -14 -14 -14 -14 -14
-16 -16 -17 -17 -16 -17 -16 -15 -15 -15 -15 -15 -16 -16 -16 -15 -15 -15 -15 -16 -15 -15 -15 -15 -15 -15 -15 -16 -15 -15 -15 -15 -15 -15 -15 -15 -15 -15 -15 -15 -14 -14 -14 -14 -14 -14 -14 -14 -14
Height
5770 5772 5776 5781 5787 5788 5794 5800 5800 5802 5808 5806 5812 5815 5818 5823 5826 5832 5833 5831 5834 5836 5838 5841 5843 5845 5848 5850 5851 5852 5853 5854 5855 5857 5859 5860 5861 5861 5862 5862 5864 5865 5866 5867 5867 5869 5869 5869 5871
5759 5763 5769 5772 5779 5782 5792 5795 5796 5798 5802 5807 5810 5811 5816 5820 5823 5828 5831 5831 5832 5836 5837 5839 5842 5844 5846 5848 5850 5851 5853 5854 5855 5856 5859 5860 5860 5861 5862 5864 5864 5864 5866 5865 5866 5868 5870 5871 5873
5748 5754 5759 5764 5772 5778 5788 5790 5794 5793 5800 5803 5806 5808 5814 5818 5820 5822 5829 5830 5830 5833 5836 5837 5840 5842 5845 5847 5849 5850 5852 5852 5854 5855 5858 5860 5860 5859 5861 5863 5864 5865 5866 5867 5867 5869 5871 5873 5873
5734 5741 5749 5757 5767 5774 5785 5787 5789 5792 5795 5800 5803 5805 5812 5815 5816 5816 5828 5826 5827 5831 5834 5835 5838 5840 5843 5846 5848 5849 5850 5851 5852 5854 5857 5858 5859 5858 5857 5862 5864 5865 5866 5866 5866 5869 5871 5872 5873
5719 5730 5737 5751 5760 5768 5778 5782 5781 5790 5793 5797 5799 5804 5808 5811 5812 5817 5822 5823 5825 5829 5832 5834 5836 5839 5842 5845 5846 5848 5849 5850 5851 5853 5855 5857 5858 5859 5860 5862 5863 5864 5865 5866 5867 5869 5870 5871 5872
5703 5715 5727 5744 5756 5762 5771 5775 5777 5783 5788 5791 5796 5800 5804 5806 5809 5815 5817 5820 5823 5826 5829 5832 5835 5838 5840 5843 5844 5846 5847 5848 5850 5852 5854 5856 5858 5858 5860 5861 5862 5863 5865 5867 5868 5869 5871 5872 5873
5688 5703 5724 5737 5745 5753 5764 5767 5773 5779 5783 5787 5794 5796 5801 5804 5808 5811 5814 5816 5821 5823 5827 5830 5833 5836 5838 5840 5842 5844 5846 5847 5849 5851 5853 5855 5857 5857 5860 5861 5861 5862 5864 5866 5867 5869 5870 5871 5871
5677 5693 5713 5723 5732 5746 5758 5761 5767 5775 5780 5784 5788 5791 5797 5802 5805 5808 5813 5814 5818 5821 5823 5827 5830 5834 5836 5838 5840 5841 5844 5847 5848 5850 5851 5853 5855 5857 5859 5858 5858 5861 5863 5864 5867 5869 5870 5870 5870
5671 5680 5698 5712 5725 5742 5751 5756 5762 5770 5774 5779 5785 5790 5793 5797 5801 5806 5810 5812 5815 5817 5821 5824 5828 5831 5834 5837 5838 5839 5842 5845 5847 5848 5849 5851 5853 5854 5856 5857 5858 5859 5861 5862 5864 5866 5867 5868 5869
5655 5672 5690 5706 5720 5735 5746 5750 5756 5765 5767 5775 5783 5786 5790 5794 5799 5803 5806 5810 5812 5815 5818 5822 5825 5829 5832 5834 5835 5837 5840 5842 5846 5847 5848 5849 5850 5852 5854 5856 5857 5858 5859 5860 5862 5864 5865 5866 5867
5651 5669 5685 5699 5713 5729 5742 5743 5752 5761 5765 5775 5784 5785 5787 5791 5795 5799 5804 5807 5809 5814 5816 5820 5822 5826 5829 5831 5833 5835 5837 5840 5843 5845 5846 5847 5847 5849 5852 5853 5855 5857 5858 5859 5860 5861 5863 5864 5866
5645 5663 5679 5694 5705 5716 5733 5740 5745 5755 5763 5771 5779 5782 5785 5788 5791 5795 5800 5804 5808 5810 5815 5817 5819 5822 5826 5829 5831 5833 5835 5838 5840 5841 5844 5844 5844 5846 5848 5851 5853 5856 5857 5858 5859 5860 5861 5863 5863
5643 5659 5673 5689 5699 5711 5722 5732 5739 5749 5759 5767 5772 5777 5780 5784 5789 5792 5796 5800 5805 5808 5811 5815 5817 5820 5822 5826 5828 5830 5832 5835 5838 5839 5841 5842 5843 5844 5848 5849 5851 5854 5855 5856 5857 5859 5860 5860 5862
5641 5654 5672 5684 5696 5706 5717 5725 5734 5742 5751 5761 5768 5773 5776 5780 5786 5789 5793 5797 5801 5805 5808 5812 5814 5816 5819 5822 5825 5827 5830 5831 5834 5836 5838 5840 5841 5842 5845 5847 5849 5851 5853 5855 5856 5857 5859 5860 5861
5638 5652 5666 5677 5693 5701 5712 5721 5729 5739 5747 5758 5763 5767 5772 5778 5784 5786 5790 5793 5798 5801 5804 5809 5812 5813 5817 5819 5822 5825 5827 5829 5831 5833 5835 5837 5839 5841 5843 5846 5848 5850 5852 5853 5855 5856 5857 5859 5860
5633 5649 5659 5675 5684 5692 5706 5716 5726 5737 5743 5753 5757 5762 5767 5774 5781 5783 5787 5790 5795 5798 5801 5805 5807 5809 5813 5815 5818 5822 5825 5827 5830 5831 5833 5835 5837 5840 5841 5844 5847 5848 5850 5852 5854 5855 5856 5857 5859
5630 5639 5655 5669 5682 5691 5704 5714 5724 5733 5739 5748 5754 5759 5764 5770 5777 5781 5784 5787 5791 5794 5797 5801 5804 5806 5808 5812 5813 5818 5822 5825 5828 5830 5831 5833 5834 5837 5840 5842 5844 5847 5848 5849 5851 5853 5855 5855 5856
5629 5641 5655 5669 5676 5690 5701 5712 5723 5729 5734 5740 5748 5754 5761 5768 5773 5777 5781 5784 5787 5790 5792 5797 5798 5801 5803 5808 5810 5814 5818 5822 5824 5827 5829 5831 5833 5835 5836 5839 5841 5844 5846 5847 5848 5850 5852 5853 5854
5632 5644 5657 5668 5679 5692 5700 5711 5719 5725 5728 5736 5743 5750 5757 5764 5770 5774 5778 5781 5783 5785 5788 5792 5793 5796 5801 5805 5808 5811 5814 5817 5820 5823 5826 5829 5831 5832 5834 5837 5838 5841 5844 5845 5846 5847 5849 5850 5851
5630 5642 5655 5666 5674 5690 5702 5708 5714 5722 5726 5734 5740 5747 5754 5761 5767 5771 5775 5778 5781 5782 5784 5788 5790 5793 5797 5801 5803 5807 5810 5813 5816 5819 5822 5824 5828 5830 5832 5834 5836 5838 5840 5842 5843 5845 5846 5847 5848
5635 5646 5656 5668 5674 5687 5698 5704 5710 5717 5722 5727 5735 5743 5749 5756 5762 5767 5771 5774 5778 5780 5782 5785 5787 5790 5793 5796 5800 5804 5808 5811 5813 5815 5818 5820 5824 5826 5829 5831 5833 5835 5837 5839 5840 5842 5842 5843 5844
5643 5650 5657 5666 5674 5682 5691 5699 5705 5712 5716 5724 5731 5738 5745 5752 5758 5764 5767 5771 5775 5777 5779 5781 5784 5787 5788 5792 5796 5801 5803 5806 5808 5811 5813 5816 5819 5822 5825 5827 5829 5832 5834 5835 5837 5838 5839 5839 5839
5646 5651 5657 5665 5674 5683 5688 5695 5703 5706 5711 5718 5727 5734 5741 5748 5754 5759 5763 5766 5770 5773 5776 5778 5780 5782 5785 5789 5792 5795 5798 5800 5803 5806 5808 5811 5814 5817 5820 5823 5825 5827 5829 5831 5832 5833 5834 5834 5833
5648 5656 5663 5668 5674 5678 5684 5690 5696 5703 5711 5717 5724 5730 5738 5744 5749 5755 5759 5762 5765 5769 5773 5775 5776 5778 5781 5785 5787 5790 5792 5795 5798 5801 5804 5807 5810 5813 5815 5818 5820 5822 5824 5826 5827 5828 5828 5828 5828
5653 5657 5662 5668 5670 5675 5681 5689 5697 5701 5709 5716 5723 5729 5735 5741 5745 5750 5755 5759 5761 5765 5768 5771 5773 5775 5776 5779 5781 5784 5787 5790 5793 5796 5799 5802 5805 5808 5809 5812 5815 5817 5818 5820 5821 5821 5821 5822 5821
5657 5661 5664 5667 5672 5676 5678 5683 5696 5703 5706 5711 5717 5724 5731 5736 5742 5745 5749 5753 5757 5759 5762 5766 5769 5771 5773 5775 5777 5779 5782 5785 5788 5792 5793 5797 5799 5802 5804 5807 5809 5811 5812 5813 5814 5815 5815 5814 5814
5656 5660 5664 5667 5671 5674 5678 5685 5689 5694 5700 5706 5713 5718 5723 5727 5734 5738 5742 5746 5751 5754 5757 5760 5763 5766 5768 5770 5772 5774 5777 5780 5783 5786 5788 5791 5794 5796 5798 5800 5802 5804 5805 5805 5806 5807 5807 5807 5806
5652 5657 5661 5665 5668 5672 5677 5682 5687 5693 5698 5703 5708 5714 5719 5723 5727 5731 5735 5740 5744 5747 5751 5753 5756 5759 5763 5765 5767 5769 5772 5774 5777 5779 5782 5784 5787 5789 5790 5792 5794 5795 5796 5797 5797 5798 5798 5798 5798
5650 5653 5656 5661 5666 5668 5673 5680 5689 5692 5697 5700 5704 5708 5713 5717 5723 5728 5732 5735 5739 5742 5745 5747 5749 5752 5755 5758 5761 5762 5764 5766 5769 5771 5774 5776 5778 5780 5782 5782 5784 5786 5787 5787 5787 5788 5787 5788 5787
5647 5649 5651 5655 5659 5662 5666 5676 5680 5684 5687 5693 5697 5702 5707 5710 5717 5721 5724 5727 5731 5734 5736 5740 5742 5744 5746 5750 5753 5755 5757 5759 5761 5763 5764 5767 5768 5770 5771 5772 5774 5775 5776 5776 5777 5777 5777 5777 5777
Wind_Speed
47 47 46 41 38 37 28 23 23 24 22 27 22 21 19 20 18 17 18 18 16 18 17 16 16 14 12 11 8 8 9 9 7 6 5 6 6 8 7 5 8 8 5 8 14 13 9 8 7
52 51 48 46 42 38 29 25 27 26 24 18 21 23 20 17 18 16 18 18 17 18 20 18 16 15 13 11 9 8 9 9 7 6 5 6 8 6 11 8 8 7 5 3 12 17 11 8 8
56 55 53 48 45 40 31 30 26 28 23 16 19 23 19 17 18 18 17 17 18 20 21 20 18 16 14 12 10 9 10 11 9 8 7 5 9 9 11 12 9 8 9 5 9 12 11 9 7
61 59 54 54 49 42 30 29 31 28 26 18 22 24 20 16 21 20 16 19 20 19 22 21 20 18 16 12 11 11 12 12 12 11 8 11 9 10 12 14 11 7 7 6 8 11 11 9 9
65 63 60 56 52 45 35 33 37 30 29 21 22 19 19 22 21 17 20 21 20 19 21 21 21 19 16 13 11 11 12 13 12 9 9 9 5 9 7 12 10 11 9 8 11 10 9 8 8
70 67 63 58 54 49 38 37 38 35 32 29 24 22 21 23 23 17 22 23 21 20 21 22 22 20 17 14 12 11 11 12 11 9 7 5 4 2 7 13 8 10 11 8 9 9 8 8 8
73 68 62 56 57 53 41 43 39 33 31 30 26 25 22 23 22 22 21 22 21 21 21 22 22 21 19 17 14 12 11 11 10 10 7 7 3 6 6 9 8 14 14 9 8 8 8 9 8
72 68 64 61 59 54 40 44 42 33 31 31 29 28 24 22 24 24 23 22 23 23 23 24 23 22 22 18 13 11 10 10 9 10 8 8 6 8 10 9 10 16 13 11 9 10 10 9 8
70 69 71 63 60 54 42 44 42 36 35 30 29 29 26 24 24 24 24 23 23 25 25 23 24 24 22 19 15 12 11 10 10 12 9 10 7 8 8 6 13 16 12 13 11 10 10 11 12
75 69 69 64 58 53 45 47 48 41 43 39 32 30 27 24 24 25 25 25 25 26 24 24 23 22 20 20 18 16 13 13 12 9 8 8 10 9 7 7 12 14 12 12 12 11 12 11 10
76 68 65 64 59 51 47 49 46 44 42 34 21 28 28 26 26 25 25 26 25 25 24 23 22 22 21 19 19 16 14 14 16 13 12 10 9 10 8 8 11 11 13 14 14 12 10 9 8
76 68 66 63 61 55 51 50 50 45 47 31 25 27 29 27 27 26 25 26 26 24 22 18 23 22 21 19 18 16 15 15 17 15 11 8 6 9 9 11 14 14 14 14 12 10 9 9 7
73 68 62 60 59 53 55 55 54 49 44 37 34 32 32 30 28 26 25 27 26 25 25 24 22 21 22 22 19 17 15 15 18 19 14 9 11 13 16 16 15 14 12 12 12 10 9 7 6
66 71 61 56 53 53 57 56 55 50 47 40 36 33 34 33 28 26 25 26 25 27 25 21 23 23 22 20 19 16 14 15 13 14 14 15 15 14 15 14 14 15 13 12 11 11 9 10 9
64 66 60 57 55 51 48 48 54 50 47 39 37 36 35 33 28 28 26 26 25 26 27 20 23 23 22 22 20 19 14 11 11 13 17 17 17 16 16 16 17 16 14 13 13 12 12 11 10
54 63 64 60 56 56 55 46 48 50 48 42 41 39 37 33 30 29 27 26 26 26 26 23 23 24 22 22 20 19 18 14 14 16 17 17 16 15 16 16 15 15 15 14 13 12 13 11 11
61 50 66 61 54 57 57 49 44 50 49 43 41 38 37 34 32 28 27 27 25 26 25 23 22 24 25 22 21 20 20 21 18 18 18 18 17 16 17 15 15 15 15 15 14 12 13 11 11
40 60 57 59 46 57 55 53 46 50 49 49 43 40 36 33 32 29 28 29 28 25 25 24 25 26 26 25 24 20 20 21 22 21 19 19 19 17 17 17 16 16 17 15 14 13 13 12 11
35 54 59 39 59 59 49 48 45 49 48 47 43 40 36 33 33 30 26 28 28 25 24 24 26 26 32 27 27 22 22 23 24 23 21 20 19 19 18 18 18 18 18 16 16 15 14 13 12
59 41 61 45 48 52 49 43 44 45 43 42 42 38 35 33 31 28 25 26 29 27 24 25 28 28 26 27 26 23 24 25 25 24 23 22 21 20 20 20 19 19 18 17 16 15 13 13 14
52 45 30 40 49 47 52 44 44 44 45 45 42 39 37 34 32 28 25 27 30 28 24 25 29 24 29 35 32 25 26 25 25 26 25 25 24 22 22 21 20 19 18 17 16 15 15 16 17
25 31 31 47 42 53 55 49 51 39 42 44 44 41 37 34 30 25 23 24 28 28 28 28 29 29 33 32 30 28 29 29 28 27 26 27 26 24 24 24 22 20 19 19 19 19 19 19 20
17 30 40 43 48 55 52 52 47 47 43 46 43 42 37 33 30 26 22 24 26 29 29 30 30 31 33 30 29 30 31 31 30 29 27 27 27 27 28 26 25 24 23 23 22 21 21 22 23
27 25 25 37 45 50 50 57 52 45 45 40 40 39 38 34 32 28 22 17 23 28 29 30 31 31 28 27 29 31 33 33 31 30 28 27 28 28 28 28 27 26 25 24 24 24 24 25 25
23 20 26 23 34 39 50 54 55 43 40 32 39 37 35 35 33 30 27 22 20 27 29 29 30 31 31 31 32 32 33 33 31 30 29 29 29 30 30 29 28 28 27 27 27 27 27 28 29
28 16 16 17 22 40 45 53 55 49 43 37 34 38 35 35 34 32 31 26 22 18 30 30 30 31 32 31 32 31 33 33 31 30 31 29 29 29 29 29 30 30 31 30 30 30 30 31 32
17 23 25 24 26 39 40 49 54 40 28 48 44 40 41 40 39 40 35 36 33 24 21 33 33 33 33 33 33 33 33 32 31 31 33 31 30 31 31 31 32 33 34 34 33 33 33 34 34
17 24 24 29 28 33 38 45 47 58 46 33 43 43 39 41 40 41 39 32 32 30 27 24 36 33 34 34 34 35 35 34 33 34 33 34 34 34 35 36 36 37 37 37 37 35 35 36 36
27 22 29 32 31 34 39 34 35 43 51 50 40 40 41 40 39 38 36 35 35 30 29 28 25 33 42 40 39 39 38 38 37 36 36 37 38 39 39 40 41 40 40 41 40 38 38 38 38
25 25 31 32 31 35 37 31 36 43 49 51 45 42 31 33 39 36 34 36 36 33 30 37 35 33 34 47 43 43 43 42 42 41 42 42 43 44 44 44 44 44 44 44 43 42 42 42 43
Wind_Direction
233 231 230 230 230 231 217 213 217 228 219 225 224 231 234 233 234 224 206 216 213 192 184 187 186 188 196 198 195 194 202 209 202 213 209 222 223 219 223 207 200 227 252 205 204 192 172 166 156
230 231 230 227 228 231 221 210 219 227 226 229 229 230 230 235 231 228 215 222 226 208 192 190 190 194 200 203 199 202 211 212 201 209 217 227 250 258 234 220 213 236 211 155 212 197 172 174 178
225 229 228 226 226 227 218 217 219 225 224 218 225 232 228 233 238 230 210 227 226 211 201 197 197 201 205 208 209 208 213 216 209 207 210 221 262 266 217 220 217 220 219 154 185 193 191 193 193
223 222 224 227 227 225 215 213 223 222 225 212 219 227 224 220 231 227 199 216 223 211 207 204 204 202 206 206 210 216 219 220 219 214 218 224 266 337 198 196 198 195 195 195 189 182 184 185 191
220 220 222 225 223 222 212 209 222 217 226 218 217 227 222 217 223 222 207 208 214 214 211 211 207 202 203 205 209 220 226 226 229 223 236 244 304 325 205 201 200 193 199 185 171 179 187 187 195
217 217 219 222 224 221 211 212 222 220 220 213 212 217 218 217 216 213 209 209 211 216 215 211 209 205 204 208 213 222 232 231 227 227 239 238 226 214 41 174 184 201 186 169 187 199 201 197 210
213 215 216 219 220 220 210 214 217 223 219 221 208 218 218 218 218 214 211 210 208 212 215 213 211 207 207 208 214 222 232 239 221 226 224 220 177 199 209 207 247 211 199 203 217 223 239 257 254
207 210 210 214 215 218 201 215 215 212 225 218 214 217 214 216 216 216 212 213 208 209 210 210 207 208 212 209 215 226 237 236 224 216 214 221 228 190 206 264 241 198 199 202 210 221 236 252 258
203 205 206 209 212 212 195 210 217 206 220 212 220 217 213 211 215 215 212 211 211 211 212 209 208 211 214 218 220 217 220 230 223 204 222 217 238 209 215 244 195 189 203 205 216 227 238 238 248
204 201 202 206 208 208 197 208 215 206 216 222 217 216 215 212 215 214 213 211 214 215 214 213 211 214 216 218 220 222 225 232 222 217 229 232 227 220 227 218 201 202 206 210 220 226 233 233 237
203 199 199 203 204 200 196 209 212 210 217 214 212 225 218 212 212 216 216 215 218 220 218 217 213 216 213 215 223 222 225 229 233 248 243 242 241 238 233 217 213 212 216 214 213 209 213 222 231
200 197 198 201 204 197 193 207 211 211 212 219 226 230 226 219 216 216 217 217 219 223 223 209 212 212 211 217 222 225 231 231 238 243 235 240 217 222 213 209 206 213 214 219 215 204 212 222 210
201 195 195 195 203 202 190 205 212 213 214 216 217 218 226 223 217 214 217 218 219 225 225 216 218 220 222 228 228 233 230 229 236 229 241 239 215 204 203 204 202 204 206 202 199 207 200 203 206
194 197 195 194 198 198 199 200 210 211 214 206 212 216 223 223 214 217 218 220 219 223 229 220 220 222 224 228 230 234 228 222 218 231 222 198 196 199 211 203 193 197 199 211 214 207 223 213 224
196 198 195 189 193 197 191 199 209 208 215 208 209 216 223 226 216 216 218 220 219 224 230 223 223 228 227 225 233 237 223 206 214 216 216 211 203 203 204 207 198 203 207 207 206 211 214 217 246
184 198 195 190 189 191 191 195 205 205 213 212 209 211 219 222 223 218 218 221 222 226 233 231 224 230 228 229 229 228 223 217 219 210 203 200 196 193 196 199 200 201 204 205 210 216 220 219 243
196 187 194 190 188 186 193 200 200 203 213 210 212 214 217 219 221 222 222 221 223 228 231 230 225 223 228 228 224 227 229 225 223 219 198 196 198 201 202 203 208 212 208 206 211 219 223 223 233
169 203 195 194 184 194 194 202 204 204 210 212 213 214 217 218 221 223 224 222 224 225 229 225 226 215 217 214 223 222 225 225 223 220 208 205 211 212 216 215 216 215 209 207 208 209 219 227 237
163 191 198 185 199 195 190 198 200 205 211 212 212 214 215 219 220 224 226 227 228 228 224 223 224 231 221 213 219 217 223 226 223 221 215 216 217 218 219 217 215 210 209 214 214 218 221 229 245
197 186 194 182 196 194 189 193 197 206 211 212 213 214 217 220 223 225 226 226 229 231 225 218 217 219 215 215 218 220 226 228 228 227 225 222 221 219 218 216 215 214 221 223 223 224 235 246 256
197 189 184 187 170 186 197 205 201 205 211 209 209 210 215 219 224 226 228 228 226 227 221 218 219 227 211 218 222 228 229 228 228 227 227 224 224 223 222 222 227 231 225 222 227 234 242 254 263
174 200 197 197 191 196 197 201 203 206 214 213 213 212 215 217 222 223 232 234 233 228 218 218 220 220 220 216 226 228 228 225 225 226 228 225 227 224 226 229 234 231 223 228 236 246 255 263 271
138 155 185 191 199 205 205 204 204 209 213 213 214 212 214 218 218 217 226 232 235 234 228 220 222 221 229 221 226 229 229 223 222 221 226 227 226 225 225 230 233 228 228 235 244 253 261 270 276
143 144 153 178 189 206 203 203 204 213 217 218 216 213 213 216 220 219 221 235 235 240 236 233 227 228 224 224 231 231 227 224 220 223 224 226 227 228 229 233 232 233 237 245 254 260 267 272 274
191 155 162 177 188 195 200 205 205 209 210 216 218 218 215 218 221 223 226 234 236 240 241 237 235 234 230 226 227 227 225 223 220 223 227 227 229 232 233 233 234 239 245 251 258 265 270 274 277
212 196 178 192 206 202 202 203 206 219 218 214 216 217 218 222 222 226 228 229 232 240 236 239 237 236 234 231 229 226 225 224 222 224 230 229 232 234 235 238 243 248 254 258 263 267 271 273 274
223 203 215 226 213 208 211 207 203 204 215 227 227 221 217 219 221 228 231 233 243 256 253 232 236 238 237 232 229 229 230 228 227 228 233 232 233 239 242 244 249 254 258 262 264 267 270 272 275
175 204 213 204 215 217 220 216 214 214 225 223 228 229 227 227 226 227 231 236 240 247 249 256 239 238 242 238 233 233 234 235 234 233 235 237 238 241 246 249 251 255 259 263 265 267 268 269 270
199 215 212 214 222 220 220 223 216 221 223 231 232 232 235 234 235 237 239 242 248 255 259 255 249 250 239 239 237 234 235 235 236 238 238 241 243 245 247 251 255 257 259 260 262 263 264 265 265
209 215 214 222 221 217 220 223 223 224 226 225 232 236 235 236 238 241 241 244 247 249 254 251 264 267 256 237 241 243 243 242 241 242 243 244 248 251 251 252 254 258 260 262 264 263 263 263 263